NA4DL Weather Reports


time (UTC)temp
C
wind
direction
speed
KPH
gust
KPH
rain 1hr
cm
rain 24hr
cm
rain mn
cm
humidity
%
barometer
mb
20260510234018 26 347 1.6 3.2 0.00 0.00 0.00 55 1015.0
20260510233019 27 333 1.6 4.8 0.00 0.00 0.00 52 1014.9
20260510232019 27 334 1.6 3.2 0.00 0.00 0.00 49 1014.8
20260510231039 29 335 1.6 4.8 0.00 0.00 0.00 47 1014.6
20260510230016 29 28 1.6 4.8 0.00 0.00 0.00 46 1014.7
20260510225019 28 341 3.2 8.0 0.00 0.00 0.00 47 1014.7
20260510224020 29 271 3.2 6.4 0.00 0.00 0.00 44 1014.7
20260510223019 29 22 3.2 8.0 0.00 0.00 0.00 46 1014.7
20260510222019 28 280 3.2 6.4 0.00 0.00 0.00 46 1014.7
20260510221017 30 286 3.2 8.0 0.00 0.00 0.00 45 1014.6
20260510220017 29 53 3.2 11.3 0.00 0.00 0.00 46 1014.6
20260510215017 28 256 3.2 8.0 0.00 0.00 0.00 46 1014.6
20260510214017 28 285 3.2 6.4 0.00 0.00 0.00 47 1014.6
20260510213020 28 288 3.2 6.4 0.00 0.00 0.00 47 1014.7
20260510212018 28 264 3.2 6.4 0.00 0.00 0.00 48 1014.8
20260510211018 29 283 3.2 6.4 0.00 0.00 0.00 47 1014.9
20260510210018 28 256 3.2 8.0 0.00 0.00 0.00 46 1015.0
20260510205018 28 284 3.2 9.7 0.00 0.00 0.00 46 1015.1
20260510204018 28 289 3.2 8.0 0.00 0.00 0.00 48 1015.1
20260510203019 28 295 1.6 6.4 0.00 0.00 0.00 48 1015.1
20260510202059 28 8 3.2 4.8 0.00 0.00 0.00 49 1015.1
20260510201019 28 302 1.6 6.4 0.00 0.00 0.00 49 1015.3
20260510200039 28 279 3.2 8.0 0.00 0.00 0.00 47 1015.3
20260510195016 28 273 3.2 8.0 0.00 0.00 0.00 46 1015.3
20260510194039 28 285 3.2 9.7 0.00 0.00 0.00 47 1015.4
20260510193019 28 278 3.2 8.0 0.00 0.00 0.00 49 1015.4
20260510192019 28 301 3.2 9.7 0.00 0.00 0.00 50 1015.3
20260510191020 28 302 3.2 6.4 0.00 0.00 0.00 48 1015.3
20260510190017 27 352 3.2 6.4 0.00 0.00 0.00 47 1015.4
20260510185117 27 293 3.2 6.4 0.00 0.00 0.00 44 1015.4
20260510184020 27 289 3.2 8.0 0.00 0.00 0.00 47 1015.5
20260510183020 27 311 3.2 6.4 0.00 0.00 0.00 47 1015.5
20260510182017 27 274 3.2 6.4 0.00 0.00 0.00 49 1015.6
20260510181017 27 265 3.2 6.4 0.00 0.00 0.00 49 1015.7
20260510180018 27 296 3.2 6.4 0.00 0.00 0.00 48 1015.8
20260510175018 26 284 3.2 8.0 0.00 0.00 0.00 49 1015.9
20260510174038 26 332 1.6 6.4 0.00 0.00 0.00 52 1016.1
20260510173018 26 265 4.8 6.4 0.00 0.00 0.00 52 1016.1
20260510172018 26 282 3.2 6.4 0.00 0.00 0.00 53 1016.1
20260510171018 26 309 3.2 8.0 0.00 0.00 0.00 54 1016.2
20260510170018 26 249 3.2 6.4 0.00 0.00 0.00 53 1016.2
20260510165039 25 282 3.2 8.0 0.00 0.00 0.00 54 1016.2
20260510164019 25 354 1.6 4.8 0.00 0.00 0.00 55 1016.1
20260510163019 25 269 3.2 8.0 0.00 0.00 0.00 55 1016.2
20260510162019 25 282 3.2 8.0 0.00 0.00 0.00 52 1016.2
20260510161032 25 300 3.2 4.8 0.00 0.00 0.00 53 1016.0
20260510160019 25 288 4.8 8.0 0.00 0.00 0.00 54 1016.0
20260510155017 24 289 3.2 6.4 0.00 0.00 0.00 56 1016.0
20260510154040 24 285 4.8 8.0 0.00 0.00 0.00 60 1016.0
20260510153017 23 297 1.6 6.4 0.00 0.00 0.00 64 1015.9
20260510152017 23 293 3.2 6.4 0.00 0.00 0.00 66 1015.9
20260510151017 23 285 1.6 4.8 0.00 0.00 0.00 67 1015.9
20260510150020 22 284 3.2 8.0 0.00 0.00 0.00 70 1016.0
20260510145032 22 335 1.6 3.2 0.00 0.00 0.00 73 1015.9
20260510144017 22 302 3.2 6.4 0.00 0.00 0.00 75 1015.9
20260510143018 21 289 3.2 4.8 0.00 0.00 0.00 78 1015.9
20260510142018 21 306 3.2 6.4 0.00 0.00 0.00 80 1016.0
20260510141018 20 308 3.2 6.4 0.00 0.00 0.00 83 1015.9
20260510140022 20 306 4.8 9.7 0.00 0.00 0.00 86 1015.9
20260510135039 20 295 3.2 4.8 0.00 0.00 0.00 88 1016.0
20260510134018 19 280 1.6 4.8 0.00 0.00 0.00 90 1015.9
20260510133019 18 307 3.2 6.4 0.00 0.00 0.00 91 1015.9
20260510132019 18 294 3.2 8.0 0.00 0.00 0.00 93 1016.0
20260510131039 17 263 1.6 3.2 0.00 0.00 0.00 95 1015.9
20260510130039 17 298 1.6 3.2 0.00 0.00 0.00 96 1015.8
20260510125040 17 307 1.6 3.2 0.00 0.00 0.00 97 1015.8
20260510124019 16 309 1.6 4.8 0.00 0.00 0.00 99 1015.6
20260510123019 16 295 1.6 6.4 0.00 0.00 0.00 100 1015.5
20260510122020 16 303 3.2 4.8 0.00 0.00 0.00 99 1015.4
20260510121020 16 306 1.6 6.4 0.00 0.00 0.00 99 1015.2
20260510120020 15 314 1.6 3.2 0.00 0.00 0.00 99 1015.1
20260510115040 15 84 1.6 3.2 0.00 0.00 0.00 99 1014.9
20260510114020 15 286 0.0 1.6 0.00 0.00 0.00 99 1014.8
20260510113020 15 327 0.0 0.0 0.00 0.00 0.00 99 1014.5
20260510112021 15 316 0.0 3.2 0.00 0.00 0.00 99 1014.4
20260510111021 15 300 1.6 3.2 0.00 0.00 0.00 99 1014.2
20260510110021 14 307 1.6 3.2 0.00 0.00 0.00 99 1014.2
20260510105041 13 290 1.6 3.2 0.00 0.00 0.00 99 1014.0
20260510104021 13 23 1.6 1.6 0.00 0.00 0.00 100 1013.8
20260510103041 13 281 0.0 1.6 0.00 0.00 0.00 99 1013.8
20260510102042 13 298 1.6 3.2 0.00 0.00 0.00 98 1013.8
20260510101022 13 264 1.6 1.6 0.00 0.00 0.00 98 1013.7
20260510100022 13 41 0.0 1.6 0.00 0.00 0.00 98 1013.7
20260510095022 13 223 1.6 3.2 0.00 0.00 0.00 96 1013.5
20260510094022 14 38 1.6 1.6 0.00 0.00 0.00 96 1013.4
20260510093042 14 82 1.6 3.2 0.00 0.00 0.00 96 1013.4
20260510092043 14 347 1.6 3.2 0.00 0.00 0.00 96 1013.4
20260510091043 14 262 1.6 3.2 0.00 0.00 0.00 95 1013.4
20260510090128 14 334 1.6 4.8 0.00 0.00 0.00 93 1013.3
20260510085023 14 254 1.6 3.2 0.00 0.00 0.00 92 1013.3
20260510084023 14 275 1.6 3.2 0.00 0.00 0.00 91 1013.3
20260510083044 15 282 3.2 4.8 0.00 0.00 0.00 90 1013.3
20260510082024 15 283 1.6 4.8 0.00 0.00 0.00 89 1013.2
20260510081044 15 272 1.6 4.8 0.00 0.00 0.00 88 1013.2
20260510080024 15 270 1.6 3.2 0.00 0.00 0.00 87 1013.1
20260510075024 15 271 1.6 4.8 0.00 0.00 0.00 87 1013.0
20260510074024 14 279 1.6 4.8 0.00 0.00 0.00 86 1012.7
20260510073045 14 281 1.6 3.2 0.00 0.00 0.00 85 1012.6
20260510072024 13 277 3.2 4.8 0.00 0.00 0.00 86 1012.6
20260510071025 12 300 0.0 3.2 0.00 0.00 0.00 88 1012.5
20260510070045 12 239 1.6 4.8 0.00 0.00 0.00 90 1012.5
20260510065025 12 186 1.6 3.2 0.00 0.00 0.00 93 1012.5
20260510064045 12 78 1.6 1.6 0.00 0.00 0.00 94 1012.5
20260510063025 12 141 1.6 3.2 0.00 0.00 0.00 94 1012.4
20260510062046 12 130 1.6 1.6 0.00 0.00 0.00 93 1012.4
20260510061026 12 109 1.6 1.6 0.00 0.00 0.00 93 1012.4
20260510060046 12 127 1.6 1.6 0.00 0.00 0.00 93 1012.5
20260510055026 12 93 1.6 3.2 0.00 0.00 0.00 93 1012.5
20260510054026 12 144 0.0 1.6 0.00 0.00 0.00 93 1012.5
20260510053046 12 107 1.6 3.2 0.00 0.00 0.00 92 1012.5
20260510052027 12 92 1.6 1.6 0.00 0.00 0.00 92 1012.5
20260510051027 12 126 1.6 1.6 0.00 0.00 0.00 93 1012.5
20260510050047 12 84 1.6 3.2 0.00 0.00 0.00 93 1012.5
20260510045027 12 109 1.6 3.2 0.00 0.00 0.00 92 1012.5
20260510044027 12 87 1.6 3.2 0.00 0.00 0.00 92 1012.5
20260510043027 13 44 0.0 1.6 0.00 0.00 0.00 92 1012.5
20260510042027 13 18 0.0 1.6 0.00 0.00 0.00 92 1012.5
20260510041027 13 118 0.0 1.6 0.00 0.00 0.00 92 1012.4
20260510040047 13 70 0.0 1.6 0.00 0.00 0.00 91 1012.4
20260510035019 13 69 0.0 1.6 0.00 0.00 0.00 90 1012.4
20260510034017 13 95 0.0 1.6 0.00 0.00 0.00 90 1012.5
20260510033017 13 77 1.6 3.2 0.00 0.00 0.00 90 1012.5
20260510032016 14 93 1.6 3.2 0.00 0.00 0.00 90 1012.5
20260510031020 14 58 0.0 1.6 0.00 0.00 0.00 90 1012.4
20260510030017 15 86 1.6 3.2 0.00 0.00 0.00 89 1012.3
20260510025018 15 84 1.6 1.6 0.00 0.00 0.00 88 1012.1
20260510024037 15 103 1.6 3.2 0.00 0.00 0.00 86 1012.0
20260510023017 15 64 1.6 1.6 0.00 0.00 0.00 85 1011.9
20260510022017 15 76 0.0 1.6 0.00 0.00 0.00 85 1011.8
20260510021018 16 76 1.6 1.6 0.00 0.00 0.00 84 1011.7
20260510020038 16 64 0.0 1.6 0.00 0.00 0.00 83 1011.6
20260510015018 16 72 0.0 1.6 0.00 0.00 0.00 82 1011.5
20260510014018 17 70 0.0 1.6 0.00 0.00 0.00 80 1011.4
20260510013018 17 65 0.0 3.2 0.00 0.00 0.00 79 1011.3
20260510012036 18 65 0.0 1.6 0.00 0.00 0.00 76 1011.2
20260510011018 19 66 0.0 1.6 0.00 0.00 0.00 76 1011.0
20260510010019 20 79 0.0 1.6 0.00 0.00 0.00 74 1010.8
20260510005019 20 81 0.0 1.6 0.00 0.00 0.00 72 1010.7
20260510004039 21 60 0.0 3.2 0.00 0.00 0.00 70 1010.6
20260510003037 22 80 0.0 1.6 0.00 0.00 0.00 68 1010.7
20260510002017 24 73 0.0 3.2 0.00 0.00 0.00 64 1010.6
20260510001020 26 99 1.6 3.2 0.00 0.00 0.00 58 1010.7
20260510000017 27 35 1.6 3.2 0.00 0.00 0.00 52 1010.5
20260509235017 28 295 1.6 3.2 0.00 0.00 0.00 46 1010.5